Location: Bishausen
(51.6334°N, 9.9631°E)
Time: 09:52:41
(UTC+00:00)

Cosmos 2237 Rocket - Pass Details

Date: 23 May 2024
Orbit: 834 x 850 km, 71.0° (Epoch: 23 June)

Event Time Altitude Azimuth Distance (km) Brightness Sun altitude
Rises 02:10:52 0° 330° (NNW) 3,427 5.6 -8.3°
Reaches altitude 10° 02:13:37 10° 341° (NNW) 2,487 5.1 -8.1°
Maximum altitude 02:18:41 32° 43° (NE) 1,438 4.4 -7.5°
Drops below altitude 10° 02:23:42 10° 106° (ESE) 2,469 5.0 -7.0°
Sets 02:26:25 0° 116° (ESE) 3,398 5.6 -6.7°
